DW8485 Goose Creek SC US current weather conditions

sailwx.info

Wind from 019

Air temperature 23.9° C
Dewpoint 19.2° C

Last reported at 2020-Oct-26 21:05 UTC.
Time now 2020-Oct-26 22:04 UTC

Location: N 32°59' W 080°02'.
View on Google Maps.

See reports from other nearby stations

  
Tides and Currents Weather Stations Pressure Air Temp Water Temp Dewpoint Dewpoint Depression Visibility Wind Speed Wind Dir Waves Ship Positions
date/time (UTC)wind fromknots sea level pressurealtimeterstation pressurevisibilityair tempwater tempwave heightnotes
2020-Oct-26 21:05 019 23.9
2020-Oct-26 21:00 019 0 gusting 2 23.9
2020-Oct-26 20:55 028 0 gusting 1 23.9
2020-Oct-26 20:45 031 0 gusting 1 24.4
2020-Oct-26 20:40 031 1 gusting 2 24.4
2020-Oct-26 20:35 033 1 gusting 6 23.9
2020-Oct-26 20:25 027 1 gusting 2 24.4
2020-Oct-26 20:15 034 1 gusting 2 24.4
2020-Oct-26 20:10 037 0 gusting 2 24.4
2020-Oct-26 20:05 036 0 gusting 1 24.4
2020-Oct-26 19:55 036 0 gusting 2 25.0
2020-Oct-26 19:50 027 1 gusting 2 24.4
2020-Oct-26 19:40 027 1 gusting 2 24.4
2020-Oct-26 19:35 016 0 gusting 4 24.4
2020-Oct-26 19:25 039 0 gusting 2 24.4
2020-Oct-26 19:15 023 0 gusting 2 24.4
2020-Oct-26 19:10 329 0 gusting 2 24.4
2020-Oct-26 19:05 334 1 gusting 4 23.9
2020-Oct-26 19:00 049 1 gusting 4 23.9
2020-Oct-26 18:55 347 1 gusting 2 23.9
2020-Oct-26 18:50 005 1 gusting 2 24.4
2020-Oct-26 18:40 039 0 gusting 4 23.9
2020-Oct-26 18:35 044 1 gusting 2 23.9
2020-Oct-26 18:25 051 1 gusting 2 23.3
2020-Oct-26 18:15 048 1 gusting 6 23.3
2020-Oct-26 18:10 344 1 gusting 4 23.3
2020-Oct-26 18:05 046 0 gusting 2 22.8
2020-Oct-26 17:55 014 1 gusting 4 22.8
2020-Oct-26 17:50 015 2 gusting 6 22.8
2020-Oct-26 17:40 347 1 gusting 5 22.8
2020-Oct-26 17:35 354 2 gusting 6 23.3
2020-Oct-26 17:30 359 1 gusting 5 23.3
2020-Oct-26 17:25 046 1 gusting 4 22.8
2020-Oct-26 17:20 348 1 gusting 4 22.8
2020-Oct-26 17:15 347 2 gusting 7 22.8
2020-Oct-26 17:10 005 0 gusting 5 22.8
2020-Oct-26 17:05 003 2 gusting 7 22.8
2020-Oct-26 16:55 023 1 gusting 2 22.8
2020-Oct-26 16:45 018 1 gusting 4 22.2
2020-Oct-26 16:40 029 1 gusting 4 22.2
2020-Oct-26 16:35 035 22.2
2020-Oct-26 16:25 039 2 gusting 5 21.7
2020-Oct-26 16:20 035 0 gusting 2 21.7
2020-Oct-26 16:15 335 1 gusting 2 21.7
2020-Oct-26 16:10 010 1 gusting 4 21.7
2020-Oct-26 16:05 036 0 gusting 2 21.7
2020-Oct-26 16:00 355 1 gusting 4 21.1
2020-Oct-26 15:55 353 1 gusting 2 21.1
2020-Oct-26 15:50 026 0 gusting 2 20.6
2020-Oct-26 15:45 020 1 gusting 2 20.6
2020-Oct-26 15:40 041 1 gusting 2 19.4
2020-Oct-26 15:35 355 0 gusting 2 19.4
2020-Oct-26 15:25 026 0 gusting 2 19.4
2020-Oct-26 15:20 331 0 gusting 2 18.9
2020-Oct-26 15:15 353 1 gusting 2 18.3
2020-Oct-26 15:05 355 0 gusting 2 18.9
2020-Oct-26 15:00 047 1 gusting 6 18.3
2020-Oct-26 14:55 035 1 gusting 2 18.3
2020-Oct-26 14:45 323 1 gusting 2 18.3
2020-Oct-26 14:40 033 0 gusting 2 17.8
2020-Oct-26 14:35 009 0 gusting 1 17.8
2020-Oct-26 14:25 332 0 gusting 2 17.8
2020-Oct-26 14:20 045 1 gusting 2 17.8
2020-Oct-26 14:10 051 0 gusting 2 17.8
2020-Oct-26 14:05 052 1 gusting 1 17.8
2020-Oct-26 14:00 052 17.8
2020-Oct-26 13:55 052 1 gusting 2 17.8
2020-Oct-26 13:50 053 0 gusting 2 17.8
2020-Oct-26 13:40 055 0 gusting 1 17.2
2020-Oct-26 13:35 073 0 gusting 2 17.8
2020-Oct-26 13:30 061 0 gusting 2 17.2
2020-Oct-26 13:25 030 17.2
2020-Oct-26 13:20 030 0 gusting 2 17.2
2020-Oct-26 13:15 028 0 gusting 1 17.2
2020-Oct-26 13:05 006 1 gusting 4 17.2
2020-Oct-26 13:00 046 1 gusting 2 17.2
2020-Oct-26 12:55 037 1 gusting 4 17.2
2020-Oct-26 12:45 042 0 gusting 1 17.2
2020-Oct-26 12:40 042 0 gusting 2 17.2
2020-Oct-26 12:35 036 1 gusting 4 17.2
2020-Oct-26 12:25 331 0 gusting 5 17.2
2020-Oct-26 12:20 027 1 gusting 5 17.2
2020-Oct-26 12:15 032 0 gusting 6 17.8
2020-Oct-26 12:10 021 0 gusting 2 17.8
2020-Oct-26 12:05 024 0 gusting 1 17.8
2020-Oct-26 11:55 063 1 gusting 5 17.8
2020-Oct-26 11:50 024 1 gusting 6 17.8
2020-Oct-26 11:40 023 1 gusting 5 17.8
2020-Oct-26 11:35 044 2 gusting 7 17.8
2020-Oct-26 11:25 040 0 gusting 5 17.8
2020-Oct-26 11:20 039 1 gusting 4 17.8
2020-Oct-26 11:10 059 1 gusting 2 17.8
2020-Oct-26 11:05 303 0 gusting 2 17.8
2020-Oct-26 11:00 051 1 gusting 2 17.8
2020-Oct-26 10:55 039 0 gusting 1 17.8
2020-Oct-26 10:45 017 0 gusting 6 17.8
2020-Oct-26 10:40 027 0 gusting 2 18.3
2020-Oct-26 10:35 027 0 gusting 2 18.3
2020-Oct-26 10:25 029 0 gusting 2 18.3
2020-Oct-26 10:20 029 0 gusting 1 18.3
2020-Oct-26 10:15 029 1 gusting 4 18.3
2020-Oct-26 10:05 024 18.3
2020-Oct-26 09:55 045 0 gusting 2 18.9
2020-Oct-26 09:50 038 1 gusting 4 18.9
2020-Oct-26 09:45 034 1 gusting 2 18.9
2020-Oct-26 09:40 042 3 gusting 6 18.9
2020-Oct-26 09:35 044 1 gusting 4 18.9
2020-Oct-26 09:25 005 1 gusting 2 18.9
2020-Oct-26 09:20 333 0 gusting 2 18.9
2020-Oct-26 09:15 030 1 gusting 2 18.9
2020-Oct-26 09:10 034 1 gusting 5 19.4
2020-Oct-26 09:05 020 0 gusting 2 19.4
2020-Oct-26 08:55 045 0 gusting 2 19.4
2020-Oct-26 08:50 036 19.4
2020-Oct-26 08:45 063 0 gusting 2 19.4
2020-Oct-26 08:40 021 0 gusting 2 19.4
2020-Oct-26 08:35 037 19.4
2020-Oct-26 08:25 032 19.4
2020-Oct-26 08:15 067 1 gusting 6 20.0
2020-Oct-26 08:10 040 0 gusting 4 20.0
2020-Oct-26 08:05 050 2 gusting 6 20.0
2020-Oct-26 07:55 007 0 gusting 5 20.0
2020-Oct-26 07:45 046 0 gusting 4 20.0
2020-Oct-26 07:40 034 1 gusting 5 20.6
2020-Oct-26 07:35 017 2 gusting 6 20.6
2020-Oct-26 07:25 042 1 gusting 2 20.6
2020-Oct-26 07:20 029 1 gusting 4 20.6
2020-Oct-26 07:15 028 1 gusting 6 20.6
2020-Oct-26 07:10 024 1 gusting 2 20.6
2020-Oct-26 07:05 009 0 gusting 2 21.1
2020-Oct-26 07:00 019 1 gusting 4 21.1
2020-Oct-26 06:55 038 1 gusting 2 21.1
2020-Oct-26 06:50 020 0 gusting 2 21.1
2020-Oct-26 06:40 053 21.1
2020-Oct-26 06:35 053 1 gusting 2 21.1
2020-Oct-26 06:25 038 0 gusting 1 21.7
2020-Oct-26 06:15 036 21.7
2020-Oct-26 06:10 027 0 gusting 2 21.7
2020-Oct-26 06:05 071 1 gusting 2 21.7
2020-Oct-26 05:55 071 0 gusting 1 21.7
2020-Oct-26 05:50 064 0 gusting 4 21.7
2020-Oct-26 05:45 060 0 gusting 4 21.7
2020-Oct-26 05:40 034 21.7
2020-Oct-26 05:35 034 21.7
2020-Oct-26 05:25 030 21.7
2020-Oct-26 05:20 030 21.7
2020-Oct-26 05:10 030 0 gusting 2 21.7
2020-Oct-26 05:05 21.7
2020-Oct-26 05:00 21.7
2020-Oct-26 04:55 057 21.7
2020-Oct-26 04:45 057 21.7
2020-Oct-26 04:40 057 0 gusting 1 22.2
2020-Oct-26 04:35 057 0 gusting 1 22.2
2020-Oct-26 04:30 058 0 gusting 1 22.2
2020-Oct-26 04:25 057 22.2
2020-Oct-26 04:20 057 22.2
2020-Oct-26 04:15 058 22.2
2020-Oct-26 04:10 058 0 gusting 1 22.2
2020-Oct-26 04:05 045 0 gusting 2 22.2
2020-Oct-26 03:55 044 22.2
2020-Oct-26 03:50 044 22.2
2020-Oct-25 20:05 329 1 gusting 2 27.8
2020-Oct-25 18:05
2020-Oct-25 17:05 277 0 25.6
2020-Oct-25 16:00
2020-Oct-25 15:05 196 0 23.3
2020-Oct-25 14:05
2020-Oct-25 13:05
2020-Oct-25 12:10
2020-Oct-25 12:05
2020-Oct-25 12:00
2020-Oct-25 11:05 171 20.6
2020-Oct-25 10:10 21.1
2020-Oct-25 10:05 21.7
2020-Oct-25 09:05 231 21.1
2020-Oct-25 09:00 231 21.1
2020-Oct-25 08:40 21.1
2020-Oct-25 08:35 21.1
2020-Oct-25 08:25 21.1
2020-Oct-25 08:10 231 21.1
2020-Oct-25 08:05 231 21.1
2020-Oct-25 07:55 231 21.1
2020-Oct-25 07:50 231 21.1
2020-Oct-25 07:40 231 21.1
2020-Oct-25 07:35 231 21.1
2020-Oct-25 07:30 231 21.1
2020-Oct-25 07:25 231 21.1
2020-Oct-25 07:20 231 21.1
2020-Oct-25 07:10 231 21.1
2020-Oct-25 07:00 231 21.1
2020-Oct-25 06:50 231 20.6
2020-Oct-25 06:45 231 20.6
2020-Oct-25 06:35 231 20.6
2020-Oct-25 06:25 231 20.6
2020-Oct-25 06:20 231 20.6
2020-Oct-25 06:15 231 20.6
2020-Oct-25 06:10 231 20.6
2020-Oct-25 06:05 231 20.6
2020-Oct-25 05:55 231 20.6
2020-Oct-25 05:50 231 20.6
2020-Oct-25 05:40 231 20.6
2020-Oct-25 05:35 231 20.6
2020-Oct-25 05:25 231 20.6
2020-Oct-25 05:20 231 20.6
2020-Oct-25 05:10 231 20.6
2020-Oct-25 05:05 231 20.6
2020-Oct-25 04:55 231 20.6
2020-Oct-25 04:45 231 20.6
2020-Oct-25 04:40 231 20.6
2020-Oct-25 04:35 231 20.6
2020-Oct-25 04:25 231 20.6
2020-Oct-25 04:20 231 21.1
2020-Oct-25 04:15 231 21.1
2020-Oct-25 04:10 231 21.1
2020-Oct-25 04:05 231 21.1
2020-Oct-25 03:55 231 21.1
2020-Oct-25 03:45 231 21.1
2020-Oct-25 03:40 231 21.1
2020-Oct-25 03:35 231 21.1
2020-Oct-25 03:25 231 21.1
2020-Oct-25 03:15 231 21.1
2020-Oct-25 03:10 231 21.1
2020-Oct-25 03:05 231 21.1
2020-Oct-25 02:55 231 21.1
2020-Oct-25 02:50 231 21.1
2020-Oct-25 02:40 231 21.1
2020-Oct-25 02:35 231 21.1
2020-Oct-25 02:25 231 21.1
2020-Oct-25 02:15 231 21.1
2020-Oct-25 02:10 231 21.1
2020-Oct-25 02:05 231 21.1
2020-Oct-25 01:55 231 21.1
2020-Oct-25 01:45 231 21.1
2020-Oct-25 01:40 231 21.1
2020-Oct-25 01:35 231 21.1
2020-Oct-25 01:25 231 21.1
2020-Oct-25 01:20 231 21.1
2020-Oct-25 01:15 231 21.1
2020-Oct-25 01:10 231 21.1
2020-Oct-25 01:05 231 21.1
2020-Oct-25 00:55 231 21.1
2020-Oct-25 00:50 231 21.1
2020-Oct-25 00:40 231 21.7
2020-Oct-25 00:35 231 21.7
2020-Oct-25 00:25 231 21.7
2020-Oct-25 00:20 231 21.7
2020-Oct-25 00:10 231 21.7
2020-Oct-25 00:05 231 21.7
2020-Oct-24 23:55 231 22.2
2020-Oct-24 23:45 231 22.2
2020-Oct-24 23:40 231 22.2
2020-Oct-24 23:35 231 22.2
2020-Oct-24 23:25 231 22.8
2020-Oct-24 23:20 231 22.8
2020-Oct-24 23:10 231 22.8
2020-Oct-24 23:00 231 23.3
2020-Oct-24 22:55 231 23.3
2020-Oct-24 22:50 231 23.9
2020-Oct-24 22:40 230 23.9
2020-Oct-24 22:35 230 0 gusting 1 24.4
2020-Oct-24 22:30 234 24.4
2020-Oct-24 22:25 234 24.4
2020-Oct-24 22:20 234 25.0
2020-Oct-24 22:10 173 25.0
2020-Oct-24 22:05 174 0 gusting 2 25.6